Location: Holyhead Bay
(53.3667°N, 4.6667°W)
Time: 21:41:17
(UTC+00:00)

Daily predictions for brighter satellites

Satellite Brightness Start Highest point End
(mag) Time Altitude Azimuth Time Altitude Azimuth Time Altitude Azimuth
Cosmos 1763 Rocket 3.5 16:42:33 10° SSW 16:47:39 89° ESE 16:52:46 10° NNE
Cosmos 1766 Rocket 4.2 16:44:20 10° NNW 16:48:44 62° W 16:53:04 10° S
SJ 16-02 4.3 16:46:03 10° NW 16:49:16 20° W 16:52:29 10° SW
ALOS 4.5 16:45:24 10° SSW 16:49:29 30° W 16:53:36 10° NNW
Cosmos 2322 Rocket 3.0 16:46:12 10° WSW 16:51:42 48° NW 16:57:14 10° NNE
H-2A R/B 2.5 16:48:40 10° SSE 16:52:56 60° ENE 16:57:03 10° N
Cosmos 1743 Rocket 3.8 16:49:02 10° N 16:53:27 51° ENE 16:57:48 10° SSE
ATLAS 5 CENTAUR R/B 4.1 16:49:00 10° WNW 16:54:09 38° SW 17:00:03 10° S
Cosmos 2298 Rocket 4.0 16:49:33 10° NNW 16:54:52 70° ENE 17:00:10 10° SE
Cosmos 2150 Rocket 4.0 16:51:06 10° NNW 16:56:17 66° ENE 17:01:25 10° SE
Cosmos 1818 3.6 16:51:59 10° NW 16:57:30 81° NE 17:02:58 10° SE
NOAA 6 4.0 16:52:27 10° SSE 16:57:35 74° ENE 17:02:44 10° NNW
CZ-2C R/B 4.4 16:55:41 10° E 16:58:40 16° NE 17:01:36 10° NNE
Cosmos 1408 Rocket 3.7 16:54:44 10° NNW 16:59:10 83° W 17:03:32 10° S
Okean-O 4.3 16:57:29 10° E 16:59:52 15° NE 17:02:17 10° NNE
PAYLOAD B 4.2 16:54:58 10° SSE 17:00:33 74° ENE 17:06:08 10° NNW
PSLV R/B 3.9 16:56:39 10° SSE 17:00:46 87° ENE 17:04:54 10° NNW
Sich 1 3.9 16:58:34 10° N 17:02:25 28° ENE 17:06:13 10° SE
AQUARIUS 4.4 16:59:23 10° SE 17:03:40 45° ENE 17:07:58 10° N
Cosmos 1606 4.4 17:03:39 10° ESE 17:06:03 16° E 17:08:29 10° NE
CZ-4B DEB 4.3 17:01:08 10° SSE 17:06:39 87° WSW 17:12:10 10° NNW
SJ-7 4.4 17:03:00 10° SSE 17:07:00 83° WSW 17:11:01 10° NNW
Cosmos 2333 Rocket 2.2 17:04:00 10° SSW 17:09:40 75° ESE 17:15:22 10° NE
Cosmos 1842 Rocket 3.5 17:05:46 10° S 17:10:01 62° E 17:14:20 10° NNE
Okean O Rocket 1.7 17:06:24 10° SE 17:10:38 52° ENE 17:14:55 10° N
Cosmos 1125 Rocket 3.5 17:05:54 10° NNW 17:11:05 64° ENE 17:16:15 10° SE
ISS -1.5 17:09:12 10° S 17:11:11 15° SE 17:13:10 10° ESE
Cosmos 1356 4.5 17:09:21 10° N 17:12:14 24° ENE 17:15:05 10° ESE
Helios 1A Rocket 4.5 17:10:00 10° E 17:12:23 15° NE 17:14:47 10° NNE
Radarsat Rocket 4.2 17:07:22 10° SSE 17:13:25 87° ENE 17:20:13 10° NNW
Cosmos 1805 Rocket 3.9 17:09:12 10° N 17:13:30 44° ENE 17:17:45 10° SE
Nadezhda 1 Rocket 4.3 17:07:34 10° SSE 17:13:37 49° E 17:19:45 10° NNE
EP 1 4.2 17:11:46 10° SW 17:14:36 89° ESE 17:16:43 14° NE
COSMOS 2428 2.8 17:09:31 10° SSW 17:15:12 67° ESE 17:20:55 10° NE
Meteor 1-27 4.4 17:09:57 10° SSW 17:15:35 79° WNW 17:21:21 10° NNE
Cosmos 2208 Rocket 4.1 17:12:27 10° SSW 17:17:41 67° ESE 17:23:01 10° NNE
CZ-4B R/B 2.9 17:17:16 14° ENE 17:18:01 15° E 17:19:56 10° SE
Cosmos 2278 Rocket 2.3 17:12:30 10° NNW 17:18:13 83° WSW 17:23:54 10° SSE
Aureole 2 Rocket 4.5 17:16:04 10° NW 17:18:25 26° WSW 17:20:50 10° SSW
Cosmos 1666 Rocket 4.4 17:15:46 10° N 17:19:34 28° ENE 17:23:22 10° SE
Cosmos 2154 Rocket 4.0 17:16:25 10° N 17:22:46 75° ENE 17:29:07 10° SSE
Cosmos 1862 3.3 17:19:38 10° N 17:23:42 82° ENE 17:27:44 10° SSE
Cosmos 1610 Rocket 4.5 17:20:21 10° N 17:26:45 79° ENE 17:33:02 10° SSE
Cosmos 540 Rocket 3.6 17:22:57 10° SSW 17:28:05 80° WNW 17:33:14 10° NNE
USA 267 3.3 17:23:29 10° ESE 17:30:02 86° NNE 17:36:38 10° WNW
Cosmos 2084 Rocket 3.9 17:26:43 10° WSW 17:30:47 54° NNW 17:34:16 14° NE
Cosmos 482 Debris 2.8 17:29:22 10° W 17:31:08 54° S 17:31:55 26° ESE
ERS-2 3.4 17:29:46 17° ENE 17:31:25 22° E 17:34:21 10° SSE
Cosmos 2341 Rocket 4.1 17:25:31 10° N 17:31:38 51° ENE 17:37:46 10° SSE
Cosmos 724 4.4 17:25:48 10° SSW 17:31:40 69° SE 17:37:04 13° NE
Cosmos 2360 Rocket 3.2 17:27:15 10° WSW 17:32:37 43° NW 17:38:00 10° NNE
Landsat 5 3.5 17:30:47 10° NNE 17:35:08 85° ESE 17:39:36 10° SSW
NOSS 0 Rocket 4.2 17:29:11 10° S 17:35:12 53° ESE 17:40:49 12° NE
NOAA 12 4.2 17:31:49 10° SSE 17:37:10 89° WSW 17:42:33 10° NNW
CZ-2D R/B 4.1 17:34:20 10° SE 17:37:37 28° ENE 17:40:56 10° N
H-2A R/B 1.9 17:35:48 10° NNE 17:39:58 74° ESE 17:44:10 10° S
Cosmos 841 Rocket 3.8 17:35:15 10° SW 17:40:28 68° WNW 17:45:41 10° NNE
Cosmos 2219 Rocket 2.3 17:34:58 10° SW 17:40:38 77° WNW 17:46:19 10° NNE
CZ-4 R/B 2.4 17:38:23 13° ESE 17:40:59 24° ENE 17:44:14 10° N
Cosmos 2292 4.5 17:38:34 10° S 17:41:40 58° E 17:45:30 10° NNE
USA 81 4.5 17:38:27 10° N 17:43:25 39° ENE 17:48:20 10° SE
Envisat 4.0 17:39:16 10° S 17:44:12 51° W 17:49:11 10° NNW
SMAP 3.3 17:39:45 10° S 17:44:25 74° WSW 17:49:06 10° NNW
Cosmos 1607 4.4 17:38:54 10° WSW 17:45:13 63° NW 17:50:52 14° NE
CZ-4B R/B 3.4 17:40:23 10° S 17:45:43 72° WSW 17:51:03 10° NNW
CREW DRAGON DEMO-1 DEB 3.6 17:42:53 10° W 17:45:46 46° SSW 17:47:43 18° SE
Cosmos 2285 Rocket 4.2 17:40:02 10° NNW 17:46:19 52° NE 17:52:31 10° SE
Cosmos 1980 Rocket 4.3 17:43:50 10° NW 17:47:02 15° NNW 17:50:15 10° NNE
SL-16 R/B 4.0 17:44:14 10° W 17:48:48 24° NNW 17:53:23 10° NNE
Cosmos 2237 Rocket 2.4 17:44:45 10° S 17:50:10 52° ESE 17:54:26 17° NE
Cosmos 1633 Rocket 3.4 17:46:15 10° N 17:50:27 42° ENE 17:54:36 10° SE
NOAA 11 4.1 17:47:04 10° SSE 17:52:29 85° ENE 17:57:58 10° NNW
Cosmos 1939 Rocket 2.8 17:49:26 10° SSE 17:53:11 52° ENE 17:57:01 10° N
FengYun 1-2 T 4.2 17:49:07 10° SSE 17:54:41 89° WSW 18:00:14 10° NNW
SL-8 Rocket 4.0 17:49:43 10° N 17:55:52 58° ENE 18:02:01 10° SSE
H-2A R/B 2.8 17:52:26 12° ESE 17:56:36 30° ENE 18:01:05 10° N
Cosmos 2369 Rocket 2.8 17:54:27 10° NNW 17:59:41 35° NE 18:02:10 24° E
CSL-04 DEB 4.3 17:56:34 10° NNE 18:00:39 84° ESE 18:04:47 10° SSW
CSL-04 Rocket 4.3 18:01:44 21° ESE 18:04:26 32° ENE 18:09:07 10° N
USA 281 3.1 17:58:10 10° SE 18:04:40 69° NE 18:11:12 10° NNW
Meteor 2-12 Rocket 4.4 17:58:52 10° NNW 18:05:05 90° SSE 18:11:13 10° S
Cosmos 2181 Rocket 4.2 18:00:40 10° SSE 18:06:47 48° E 18:12:52 10° NNE
Cosmos 2221 3.7 18:02:40 10° SW 18:06:50 43° WNW 18:10:59 10° N
Cosmos 1980 3.6 18:02:39 10° SSW 18:08:19 72° ESE 18:12:27 19° NE
Cosmos 389 Rocket 2.2 18:19:04 10° S 18:22:29 81° ESE 18:23:14 52° NNE
YAOGAN 1 2.6 18:21:23 24° SE 18:23:46 52° ENE 18:28:00 10° N
Cosmos 2297 3.7 18:19:44 10° NNW 18:25:27 87° WSW 18:31:10 10° SSE
Cosmos 1470 Rocket 3.6 18:21:38 10° N 18:25:55 53° ENE 18:27:22 36° SE
Cosmos 836 Rocket 4.4 18:20:43 10° SSW 18:26:00 78° ESE 18:29:16 24° NNE
ADEOS Rocket 4.4 18:20:42 10° N 18:27:52 50° WNW 18:35:16 10° SW
Cosmos 1943 Rocket 2.1 18:22:56 10° NNW 18:28:29 67° NE 18:31:41 26° SE
Cosmos 44 3.5 18:23:31 10° NW 18:28:46 84° SW 18:32:39 19° SE
Meteor 1-14 Rocket 4.4 18:23:11 10° N 18:29:00 55° ENE 18:34:52 10° SSE
Cosmos 1933 3.2 18:25:05 10° S 18:29:04 62° E 18:29:42 54° NE
COSMO-SKYMED 1 2.5 18:29:20 36° NNE 18:30:58 65° ESE 18:35:17 10° S
CZ-4 R/B 4.4 18:29:35 10° SSE 18:33:44 84° WSW 18:37:55 10° NNW
Okean-O 2.5 18:31:14 10° SSE 18:35:40 78° ENE 18:40:07 10° NNW
NOAA 15 4.5 18:31:28 10° SSE 18:36:45 73° ENE 18:42:02 10° NNW
Cosmos 1867 3.8 18:31:58 10° SSW 18:37:10 49° ESE 18:37:58 45° E
Cosmos 2322 Rocket 4.3 18:33:19 10° WNW 18:37:11 18° NNW 18:40:48 11° NNE
USA 215 3.4 18:35:13 36° E 18:37:53 59° SE 18:44:20 10° SW
CZ-2C R/B 2.8 18:32:46 10° SSE 18:37:53 78° ENE 18:42:46 10° NNW
SL-16 R/B 2.4 18:32:41 10° S 18:38:05 47° ESE 18:38:47 44° E
SJ-11-01 4.3 18:37:47 52° E 18:38:14 54° ENE 18:42:52 10° N
ARGOS 3.3 18:38:30 45° E 18:39:07 47° ENE 18:44:16 10° N
Sich 1 4.4 18:36:05 10° NNW 18:40:14 40° W 18:44:19 10° SSW
Cosmos 1606 3.2 18:37:29 10° SSW 18:41:20 59° WNW 18:43:42 22° N
Cosmos 2218 Rocket 3.9 18:35:36 10° NNW 18:41:48 86° W 18:47:57 10° S
Meteor 1-26 Rocket 4.3 18:37:53 10° S 18:43:47 60° E 18:48:00 20° NNE
Helios 1A Rocket 2.8 18:43:47 16° SSE 18:47:01 82° WSW 18:51:05 10° NNW
Okean O Rocket 4.1 18:43:50 10° SW 18:47:17 23° W 18:50:46 10° NW
ISS -2.4 18:44:11 10° SW 18:46:30 34° SSW 18:46:30 34° SSW
Cosmos 2263 4.3 18:42:28 10° NNW 18:47:57 49° NE 18:48:12 49° ENE
SAR-Lupe-4 4.2 18:50:18 48° SSW 18:50:18 48° SSW 18:52:58 10° SSW
CZ-4B R/B 2.5 18:50:25 39° WNW 18:50:27 39° WNW 18:53:20 10° SW
Cosmos 2366 rocket 4.1 18:46:33 10° NNW 18:52:47 76° W 18:58:54 10° S
Cosmos 2333 Rocket 3.7 18:49:30 10° W 18:54:30 31° NW 18:58:12 16° NNE
Cosmos 1933 Rocket 4.3 18:52:10 10° N 18:55:09 41° N 18:55:09 41° N
Cosmos 1932 4.5 18:51:02 10° SW 18:57:35 89° NW 18:59:59 43° NE
COSMOS 2428 4.1 18:54:45 10° WSW 18:59:56 34° NW 19:03:32 18° NNE
Cosmos 1151 Rocket 3.0 18:56:06 10° SSW 19:00:18 80° W 19:00:18 80° W
ERS-2 3.4 19:04:21 34° NW 19:05:06 39° WNW 19:08:31 10° SW
Cosmos 1328 Rocket 3.8 19:02:11 10° SSW 19:05:44 59° SSW 19:05:44 59° SSW
Lacrosse 5 rocket 3.8 19:03:43 10° SSW 19:03:47 10° SSW 19:03:47 10° SSW
NOSS 3-3 (A) 4.5 19:02:57 10° NW 19:10:00 62° NNE 19:11:32 53° ENE
NOSS 3-3 (C) 4.5 19:03:03 10° NW 19:10:06 62° NNE 19:11:36 53° ENE
SL-24 R/B 4.5 19:12:44 56° WSW 19:12:44 56° WSW 19:16:05 10° SSW
USA 267 4.0 19:09:06 20° SSE 19:13:27 46° SW 19:19:43 10° WNW
CZ-4 R/B 2.4 19:14:25 31° SSW 19:15:48 44° W 19:19:40 10° NNW
Cosmos 2360 Rocket 4.3 19:14:32 10° WNW 19:18:09 17° NNW 19:20:33 13° N
SKYMED 2 4.5 19:17:58 39° NNW 19:19:03 47° WNW 19:23:12 10° SW
Meteor 1-5 Rocket 4.2 19:13:53 10° NNW 19:19:49 78° ENE 19:19:49 78° ENE
Cosmos 2239 Rocket 4.4 19:14:17 10° N 19:19:58 68° NE 19:19:58 68° NE
CSL-04 Debris 4.3 19:17:54 29° S 19:20:47 75° WSW 19:26:19 10° NNW
Cosmos 2219 Rocket 4.1 19:21:00 10° W 19:25:31 24° NNW 19:28:08 18° N
Cosmos 1980 Rocket 4.4 19:30:46 10° NNW 19:32:56 13° N 19:32:56 13° N
Cosmos 44 Rocket 4.4 19:28:47 10° NW 19:32:07 38° NNW 19:32:07 38° NNW
Cosmos 2237 Rocket 3.3 19:29:10 10° WSW 19:34:27 39° NW 19:36:16 31° N
SL-16 R/B 4.4 19:32:22 10° NW 19:35:06 13° N 19:35:58 13° N
H-2A R/B 2.7 19:33:04 27° SSW 19:35:49 55° W 19:40:56 10° NNW
Cosmos 1656 Rocket 4.2 19:31:29 10° NNW 19:35:45 51° NNW 19:35:45 51° NNW
MOS 1 Rocket 4.0 19:43:05 61° WSW 19:43:05 61° WSW 19:47:52 10° SSW
Cosmos 2369 Rocket 2.5 19:38:27 10° NW 19:43:59 62° WSW 19:43:59 62° WSW
CSL-04 Rocket 4.3 19:43:23 44° SW 19:44:35 53° W 19:49:49 10° NNW
Cosmos 1821 Rocket 4.3 19:49:01 10° NNW 19:55:06 62° W 19:56:14 53° SW
Cosmos 1943 Rocket 4.0 20:07:14 10° NW 20:11:49 27° WSW 20:13:17 24° SW
USA 215 3.7 20:22:34 56° W 20:22:34 56° W 20:27:39 10° W
SL-16 R/B 3.6 20:16:55 10° WSW 20:20:43 35° W 20:20:43 35° W
